Hourly Weather Roundup
Issued by NWS Central Illinois

Home | Current Version | Previous Version | Text Only | Print | Product List | Glossary On
Versions: 1 2 3 4 5 6 7 8 9 10 11 12 13 14 15 16 17 18 19 20 21 22 23 24 25 26 27 28 29 30 31 32 33 34 35 36 37 38 39 40 41 42 43 44 45 46 47 48 49 50
000
NZUS43 KILX 300610
HWRILX

AREA WEATHER ROUNDUP
NATIONAL WEATHER SERVICE, LINCOLN IL
100 AM CDT SAT JUL 30 2016


CITY           SKY/WX    TMP DP  RH WIND       PRES   REMARKS
BLOOMINGTON    CLEAR     68  67  96 N7        29.94F
6HR MIN TEMP:  68; 6HR MAX TEMP:  78;

CHAMPAIGN      CLEAR     67  65  93 W5        29.93S
6HR MIN TEMP:  67; 6HR MAX TEMP:  79;

DANVILLE       CLEAR     68  67  99 NW5       29.89S FOG
6HR MIN TEMP:  67; 6HR MAX TEMP:  79;

DECATUR        CLEAR     69  65  86 CALM      29.93S
6HR MIN TEMP:  69; 6HR MAX TEMP:  82;

EFFINGHAM      CLOUDY    71  71 100 CALM      29.94S
FLORA          CLEAR     72  70  94 SW3       29.93S
6HR MIN TEMP:  71; 6HR MAX TEMP:  82;

GALESBURG      MOCLDY    66  65  98 CALM      29.96R
JACKSONVILLE   CLEAR     66  64  95 CALM      29.94S
6HR MIN TEMP:  65; 6HR MAX TEMP:  78;

LACON          CLOUDY    69  68  96 CALM      29.93S FOG
6HR MIN TEMP:  67; 6HR MAX TEMP:  71;

LAWRENCEVILLE  CLEAR     71  70  96 CALM        N/A
6HR MIN TEMP:  71; 6HR MAX TEMP:  80;

LITCHFIELD       N/A    N/A N/A N/A MISG        N/A
$$


CITY           SKY/WX    TMP DP  RH WIND       PRES   REMARKS
LINCOLN        CLEAR     70  67  89 CALM      29.93S
6HR MIN TEMP:  70; 6HR MAX TEMP:  80;

MACOMB         PTCLDY    65  64  98 CALM      29.97R
MATTOON        CLEAR     71  66  84 W6        29.92S
6HR MIN TEMP:  70; 6HR MAX TEMP:  79;

MT CARMEL AP   FOG       69  68  97 CALM      29.92S VSB 1/4
6HR MIN TEMP:  69; 6HR MAX TEMP:  79;

OLNEY-NOBLE AP CLEAR     68  68 100 CALM      29.93S FOG
PARIS          CLEAR     68  67  98 CALM      29.92S
6HR MIN TEMP:  67; 6HR MAX TEMP:  81;

PEORIA         PTCLDY    70  68  93 NE5       29.93S
6HR MIN TEMP:  70; 6HR MAX TEMP:  79;

PONTIAC        NOT AVBL
RANTOUL        NOT AVBL
ROBINSON       CLEAR     66  66 100 CALM      29.92S
6HR MIN TEMP:  66; 6HR MAX TEMP:  80;

SPRINGFIELD    CLEAR     68  65  90 W3        29.94R
6HR MIN TEMP:  68; 6HR MAX TEMP:  81;

TAYLORVILLE    CLEAR     65  65  99 MISG      29.94R
$$

...REGIONAL REPORTS...


CITY           SKY/WX    TMP DP  RH WIND       PRES   REMARKS
CHICAGO O`HARE CLOUDY    71  67  87 N7        29.95S
KANKAKEE       CLOUDY    67  66  94 CALM      29.93S
MOLINE         CLOUDY    71  67  87 E7        29.96R
MOUNT STERLING CLEAR     66  64  93 W5        29.95S
MOUNT VERNON   CLOUDY    73  70  88 CALM      29.95S
PITTSFIELD     CLEAR     66  65  96 CALM      29.97S
QUINCY         CLEAR     67  66  97 NW6       29.96S
ROCKFORD       CLOUDY    69  65  86 NE9       29.97F
$$


CITY           SKY/WX    TMP DP  RH WIND       PRES   REMARKS
BURLINGTON     CLOUDY    68  67  96 N6        29.95S
CEDAR RAPIDS   CLOUDY    69  68  96 N3        29.98S
DES MOINES     CLOUDY    69  65  86 NE5       30.00S
KIRKSVILLE     CLEAR     62  61  96 W3        30.00S
OTTUMWA        CLOUDY    67  64  90 NW5       29.98S
ST LOUIS       PTCLDY    76  67  73 CALM      29.96S
$$


CITY           SKY/WX    TMP DP  RH WIND       PRES   REMARKS
TERRE HAUTE    CLEAR     70  67  90 CALM      29.91S
EVANSVILLE     CLEAR     71  70  96 SW3       29.93R
INDIANAPOLIS   PTCLDY    71  67  87 S3        29.92S
LAFAYETTE      PTCLDY    69  69 100 NE3       29.91S
MADISON        CLOUDY    67  60  78 NE8       29.99S
MILWAUKEE      MOCLDY    72  63  73 E9        29.98S
$$






USA.gov is the U.S. government's official web portal to all federal, state and local government web resources and services.